Flag for Morocco Weather past 2 weeks in Casablanca, Morocco

Now
61 °F

Clear.


Feels Like: 61 °F
Forecast: 52 / 66 °F
Wind: 12 mph from Northeast

Location: Casablanca Airport

Current Time: Mar 2, 2015 at 1:05:18 PM

Latest Report: Mar 2, 2015 at 12:00 PM


Visibility: 5 mi

Pressure: 30.30 "Hg

Humidity: 83%

Dew point: 55 °F

Location of CasablancaLocation

Historic Weather in Casablanca — Graph

°F

Casablanca temperature yesterday

Maximum temperature yesterday: 66 °F (at 2:00 PM)
Minimum temperature yesterday: 50 °F (at 7:00 AM)
Average temperature yesterday: 58 °F

Past Weeks' High & Low Weather Summary

 TemperatureHumidityPressure
High66 °F (Mar 1, 2:00 PM)100% (Feb 21, 8:00 PM)30.48 "Hg (Feb 21, 8:00 PM)
Low46 °F (Feb 23, 1:00 PM)51% (Feb 17, 10:00 AM)29.95 "Hg (Feb 21, 4:00 PM)
Average57 °F77%30.22 "Hg
* Reported Feb 15 12:00 Noon — Mar 2 12:00 Noon, Casablanca, Weather by CustomWeather, © 2015

Note: Actual official high and low records may vary slightly from our data, if they occured in-between our weather recording intervals... More about our weather records

Advertising

Casablanca weather history for previous 24 hours

 ConditionsComfort  
Time TempWeatherWind HumidityBarometerVisibility
12:00 PM
Mon, Mar 2
61 °FClear.12 mph83%30.30 "Hg5 mi
11:00 AM61 °FScattered clouds.9 mph77%30.30 "Hg3 mi
10:00 AM59 °FPartly sunny.12 mph82%30.30 "Hg3 mi
9:00 AM57 °FPartly sunny.9 mph82%30.30 "Hg3 mi
7:00 AM55 °FPartly sunny.7 mph88%30.27 "Hg4 mi
6:00 AM55 °FPartly sunny.9 mph88%30.27 "Hg4 mi
12:00 AM57 °FPartly cloudy.9 mph88%30.27 "HgN/A
11:00 PM
Sun, Mar 1
57 °FPartly cloudy.12 mph88%30.27 "HgN/A
10:00 PM57 °FPartly cloudy.16 mph88%30.27 "HgN/A
9:00 PM59 °FPartly cloudy.12 mph88%30.27 "HgN/A
8:00 PM59 °FPartly cloudy.13 mph94%30.27 "HgN/A
7:00 PM59 °FPartly cloudy.13 mph94%30.27 "HgN/A
6:00 PM61 °FPartly cloudy.15 mph88%30.27 "HgN/A
5:00 PM61 °FBroken clouds.18 mph83%30.27 "HgN/A
4:00 PM61 °FPartly sunny.18 mph83%30.27 "HgN/A
3:00 PM63 °FPartly sunny.18 mph77%30.27 "HgN/A
2:00 PM66 °FScattered clouds.12 mph68%30.30 "HgN/A
1:00 PM64 °FScattered clouds.12 mph73%30.33 "Hg5 mi
Weather by CustomWeather, © 2015

See weather overviewHow to use our weather pages